Torna al catalogo

LEOPARD

AttivoScienzaVLEO
NORAD 67687·PAYLOAD·🇯🇵 Japan

Lanciato Nov 20, 1998 da Baikonur Cosmodrome

Loading…

Prossimi Passaggi (prossime 24 ore)

TLE

AggiornatoSource: Space-Track

Epoca: Sep 14, 2026, 13:42 UTC

1 67687U 98067YD  26257.57089780  .00145956  00000-0  99454-3 0  9994
2 67687  51.6251 200.1566 0008181 138.9142 221.2474 15.73856885 34210

Traccia LEOPARD in tempo reale con AllMySat

Download on the App Store